Tracking 18032 objects as of 26-March-2017
HD Live streaming from Space Station
objects crossing your sky now

CANX-1

Track CANX-1 now!
10-day predictions
CANX-1 is classified as:


NORAD ID: 27847
Int'l Code: 2003-031H
Perigee: 819.3 km
Apogee: 831.9 km
Inclination: 98.7 °
Period: 101.3 minutes
Semi major axis: 7196 km
RCS: 0.0073 m2 (small)
Launch date: June 30, 2003
Source: Canada (CA)
Launch site: PLESETSK MISSILE AND SPACE COMPLEX (PKMTR)
Uplink (MHz):
Downlink (MHz): 437.880
Beacon (MHz):
Mode: 1200bps AFSK
Call sign: VA3SFL
Status: Inactive

Your satellite tracking list
Your tracking list is empty





NASA's NSSDC Master Catalog

Two Line Element Set (TLE):
1 27847U 03031H   17082.97820541 +.00000051 +00000-0 +42736-4 0  9991
2 27847 098.6852 092.0268 0008813 201.5949 158.4858 14.22042419712306
Source of the keplerian elements: AFSPC